NOZ1326 ENZV-EGCC

Flight info

Callsign NOZ1326
Flight time 1h 16m
Altitude 34000
Route RUMOG1F RUMOG DCT NIVUN DCT LAMRO DCT CUTEL DCT SUSIS DCT ROBEM DCT NATEB/N0380F250 P18 TILNI TILNI2M
Aircraft B738/M-SDE2E3FGHIRWXY/LB1

Departure

Time 2026-04-25 09:17
Airport Stavanger Airport, Sola (ENZV)

Arrival

Time 2026-04-25 10:34
Airport Manchester Airport (EGCC)
Time Latitude Longitude Altitude Speed Heading
2026-04-25 08:40 58.88058 5.62908 27 ft 0 kts 344°
2026-04-25 08:59 58.88057 5.62908 24 ft 1 kts 344°
2026-04-25 09:00 58.88034 5.62921 26 ft 4 kts 349°
2026-04-25 09:00 58.88008 5.62923 28 ft 4 kts 17°
2026-04-25 09:00 58.87987 5.62899 29 ft 5 kts 64°
2026-04-25 09:00 58.87983 5.62876 29 ft 3 kts 80°
2026-04-25 09:01 58.87983 5.62874 29 ft 2 kts 80°
2026-04-25 09:01 58.88058 5.62908 24 ft 0 kts 344°
2026-04-25 09:09 58.88053 5.62911 24 ft 4 kts 344°
2026-04-25 09:09 58.88027 5.62924 24 ft 4 kts 352°
2026-04-25 09:09 58.88001 5.62922 25 ft 4 kts 25°
2026-04-25 09:10 58.87985 5.62893 25 ft 3 kts 78°
2026-04-25 09:10 58.87984 5.62888 25 ft 1 kts 80°
2026-04-25 09:10 58.87985 5.62888 26 ft 0 kts 80°
2026-04-25 09:12 58.87988 5.62927 26 ft 7 kts 79°
2026-04-25 09:12 58.87984 5.63073 26 ft 12 kts 105°
2026-04-25 09:12 58.87959 5.63233 28 ft 12 kts 106°
2026-04-25 09:12 58.87908 5.63334 30 ft 12 kts 191°
2026-04-25 09:13 58.87822 5.63290 30 ft 13 kts 182°
2026-04-25 09:13 58.87726 5.63292 30 ft 15 kts 179°
2026-04-25 09:13 58.87608 5.63295 28 ft 18 kts 179°
2026-04-25 09:13 58.87481 5.63299 30 ft 18 kts 179°
2026-04-25 09:14 58.87358 5.63303 31 ft 17 kts 180°
2026-04-25 09:14 58.87242 5.63306 30 ft 17 kts 179°
2026-04-25 09:14 58.87127 5.63309 31 ft 16 kts 179°
2026-04-25 09:14 58.87024 5.63353 31 ft 16 kts 142°
2026-04-25 09:15 58.87007 5.63547 33 ft 17 kts 64°
2026-04-25 09:15 58.87061 5.63745 33 ft 16 kts 58°
2026-04-25 09:15 58.87136 5.63910 34 ft 18 kts 48°
2026-04-25 09:15 58.87227 5.64082 36 ft 19 kts 42°
2026-04-25 09:16 58.87325 5.64256 37 ft 19 kts 41°
2026-04-25 09:16 58.87421 5.64422 36 ft 18 kts 41°
2026-04-25 09:16 58.87535 5.64515 34 ft 15 kts 17°
2026-04-25 09:16 58.87577 5.64461 34 ft 4 kts 287°
2026-04-25 09:17 58.87743 5.63369 29 ft 115 kts 286°
2026-04-25 09:17 58.88016 5.61492 273 ft 161 kts 289°
2026-04-25 09:17 58.88296 5.59530 1590 ft 140 kts 294°
2026-04-25 09:18 58.88572 5.57730 2577 ft 144 kts 296°
2026-04-25 09:18 58.88882 5.55742 3059 ft 168 kts 295°
2026-04-25 09:18 58.89238 5.53439 3402 ft 190 kts 294°
2026-04-25 09:18 58.89626 5.50859 3762 ft 207 kts 293°
2026-04-25 09:19 58.90038 5.48073 4220 ft 225 kts 291°
2026-04-25 09:19 58.90462 5.45088 4986 ft 232 kts 289°
2026-04-25 09:19 58.90520 5.41951 6007 ft 239 kts 271°
2026-04-25 09:19 58.90253 5.38685 6712 ft 255 kts 261°
2026-04-25 09:20 58.89274 5.35681 7535 ft 278 kts 231°
2026-04-25 09:20 58.87656 5.33490 8447 ft 289 kts 218°
2026-04-25 09:20 58.85855 5.31671 9282 ft 296 kts 216°
2026-04-25 09:20 58.83986 5.29925 10104 ft 300 kts 216°
2026-04-25 09:21 58.82060 5.28142 10549 ft 318 kts 216°
2026-04-25 09:21 58.79991 5.26204 10741 ft 342 kts 215°
2026-04-25 09:21 58.77811 5.24162 11230 ft 354 kts 215°
2026-04-25 09:21 58.75583 5.22085 11964 ft 358 kts 215°
2026-04-25 09:22 58.73333 5.19987 12750 ft 361 kts 216°
2026-04-25 09:22 58.71062 5.17861 13507 ft 365 kts 216°
2026-04-25 09:22 58.68769 5.15707 14198 ft 369 kts 217°
2026-04-25 09:22 58.66454 5.13530 14868 ft 372 kts 217°
2026-04-25 09:23 58.64123 5.11336 15536 ft 376 kts 217°
2026-04-25 09:23 58.61763 5.09115 16183 ft 380 kts 218°
2026-04-25 09:23 58.59383 5.06876 16833 ft 383 kts 218°
2026-04-25 09:23 58.56975 5.04614 17491 ft 387 kts 218°
2026-04-25 09:24 58.54542 5.02332 18132 ft 391 kts 218°
2026-04-25 09:24 58.52089 5.00034 18702 ft 395 kts 218°
2026-04-25 09:24 58.49612 4.97719 19212 ft 398 kts 218°
2026-04-25 09:24 58.47109 4.95383 19761 ft 402 kts 218°
2026-04-25 09:25 58.44595 4.93043 20341 ft 404 kts 218°
2026-04-25 09:25 58.42062 4.90690 20925 ft 406 kts 218°
2026-04-25 09:25 58.39552 4.88361 21474 ft 408 kts 218°
2026-04-25 09:25 58.36983 4.85979 21984 ft 410 kts 217°
2026-04-25 09:26 58.34419 4.83608 22582 ft 411 kts 217°
2026-04-25 09:26 58.31837 4.81223 23118 ft 414 kts 217°
2026-04-25 09:26 58.29236 4.78821 23606 ft 417 kts 217°
2026-04-25 09:26 58.26620 4.76409 24027 ft 420 kts 217°
2026-04-25 09:27 58.23978 4.73977 24406 ft 424 kts 217°
2026-04-25 09:27 58.21311 4.71525 24763 ft 428 kts 217°
2026-04-25 09:27 58.18620 4.69057 25136 ft 431 kts 217°
2026-04-25 09:27 58.15904 4.66572 25516 ft 435 kts 217°
2026-04-25 09:28 58.13171 4.64075 25875 ft 438 kts 216°
2026-04-25 09:28 58.10417 4.61564 26172 ft 441 kts 216°
2026-04-25 09:28 58.07653 4.59052 26616 ft 442 kts 216°
2026-04-25 09:28 58.04876 4.56531 26968 ft 445 kts 216°
2026-04-25 09:29 58.02076 4.53989 27284 ft 448 kts 215°
2026-04-25 09:29 57.99251 4.51430 27597 ft 452 kts 215°
2026-04-25 09:29 57.96415 4.48865 27933 ft 455 kts 215°
2026-04-25 09:29 57.93550 4.46280 28267 ft 457 kts 215°
2026-04-25 09:30 57.90668 4.43684 28582 ft 460 kts 215°
2026-04-25 09:30 57.87775 4.41083 28880 ft 463 kts 215°
2026-04-25 09:30 57.84857 4.38463 29136 ft 466 kts 215°
2026-04-25 09:30 57.81934 4.35847 29561 ft 465 kts 214°
2026-04-25 09:31 57.79018 4.33246 30107 ft 462 kts 214°
2026-04-25 09:31 57.76115 4.30659 30496 ft 462 kts 214°
2026-04-25 09:31 57.73214 4.28073 30789 ft 463 kts 214°
2026-04-25 09:31 57.70302 4.25479 31078 ft 464 kts 214°
2026-04-25 09:32 57.67386 4.22887 31353 ft 464 kts 214°
2026-04-25 09:32 57.64478 4.20308 31704 ft 463 kts 213°
2026-04-25 09:32 57.61563 4.17727 32012 ft 464 kts 213°
2026-04-25 09:32 57.58641 4.15145 32320 ft 464 kts 213°
2026-04-25 09:33 57.55754 4.12488 32635 ft 460 kts 217°
2026-04-25 09:33 57.53018 4.09604 32969 ft 457 kts 218°
2026-04-25 09:33 57.50256 4.06533 33265 ft 457 kts 219°
2026-04-25 09:33 57.47576 4.03508 33550 ft 457 kts 219°
2026-04-25 09:34 57.44860 4.00453 33866 ft 457 kts 219°
2026-04-25 09:34 57.42135 3.97420 34126 ft 458 kts 219°
2026-04-25 09:34 57.39343 3.94338 34101 ft 463 kts 219°
2026-04-25 09:35 57.33830 3.88325 34099 ft 462 kts 218°
2026-04-25 09:35 57.28330 3.82376 34099 ft 456 kts 218°
2026-04-25 09:36 57.22839 3.76437 34122 ft 459 kts 218°
2026-04-25 09:36 57.17319 3.70486 34130 ft 461 kts 218°
2026-04-25 09:37 57.11761 3.64517 34124 ft 463 kts 218°
2026-04-25 09:37 57.06185 3.58549 34135 ft 465 kts 218°
2026-04-25 09:38 57.00587 3.52582 34089 ft 465 kts 216°
2026-04-25 09:38 56.94986 3.46641 34130 ft 465 kts 216°
2026-04-25 09:39 56.89384 3.40715 34135 ft 466 kts 216°
2026-04-25 09:39 56.83773 3.34798 34133 ft 466 kts 216°
2026-04-25 09:40 56.75350 3.25957 34129 ft 464 kts 215°
2026-04-25 09:40 56.69763 3.20116 34128 ft 462 kts 215°
2026-04-25 09:41 56.64201 3.14320 34121 ft 460 kts 215°
2026-04-25 09:41 56.58665 3.08572 34133 ft 458 kts 215°
2026-04-25 09:42 56.53181 3.02896 34116 ft 456 kts 215°
2026-04-25 09:42 56.47655 2.97197 34139 ft 453 kts 215°
2026-04-25 09:43 56.42228 2.91619 34143 ft 450 kts 215°
2026-04-25 09:43 56.36793 2.86050 34132 ft 448 kts 215°
2026-04-25 09:44 56.31384 2.80526 34153 ft 446 kts 215°
2026-04-25 09:44 56.25993 2.75039 34158 ft 444 kts 215°
2026-04-25 09:45 56.20623 2.69590 34165 ft 443 kts 215°
2026-04-25 09:45 56.15258 2.64165 34167 ft 441 kts 215°
2026-04-25 09:46 56.09918 2.58781 34170 ft 440 kts 215°
2026-04-25 09:46 56.04581 2.53417 34180 ft 440 kts 215°
2026-04-25 09:47 55.99238 2.48063 34186 ft 440 kts 215°
2026-04-25 09:47 55.93889 2.42721 34192 ft 440 kts 215°
2026-04-25 09:48 55.91296 2.39881 34159 ft 434 kts 226°
2026-04-25 09:48 55.89915 2.37394 34196 ft 422 kts 239°
2026-04-25 09:48 55.88413 2.32989 34184 ft 412 kts 252°
2026-04-25 09:48 55.87605 2.28166 34200 ft 403 kts 264°
2026-04-25 09:49 55.86703 2.18309 34192 ft 404 kts 265°
2026-04-25 09:49 55.85840 2.08387 34199 ft 406 kts 265°
2026-04-25 09:50 55.84934 1.98433 34198 ft 408 kts 265°
2026-04-25 09:50 55.83992 1.88443 34199 ft 410 kts 264°
2026-04-25 09:51 55.83031 1.78422 34204 ft 411 kts 264°
2026-04-25 09:51 55.82058 1.68392 34183 ft 412 kts 264°
2026-04-25 09:52 55.81078 1.58370 34198 ft 411 kts 264°
2026-04-25 09:52 55.80092 1.48367 34208 ft 410 kts 264°
2026-04-25 09:53 55.79100 1.38394 34207 ft 410 kts 264°
2026-04-25 09:53 55.78102 1.28446 34214 ft 409 kts 264°
2026-04-25 09:54 55.77098 1.18524 34210 ft 407 kts 263°
2026-04-25 09:54 55.76091 1.08652 34200 ft 405 kts 263°
2026-04-25 09:55 55.75080 0.98828 34211 ft 404 kts 263°
2026-04-25 09:55 55.74064 0.89027 34219 ft 404 kts 263°
2026-04-25 09:56 55.73040 0.79228 34222 ft 404 kts 263°
2026-04-25 09:56 55.72007 0.69429 34228 ft 405 kts 263°
2026-04-25 09:57 55.70970 0.59674 34226 ft 405 kts 262°
2026-04-25 09:57 55.69916 0.49831 34220 ft 407 kts 262°
2026-04-25 09:58 55.68851 0.39963 34238 ft 409 kts 262°
2026-04-25 09:58 55.67771 0.30045 34242 ft 411 kts 262°
2026-04-25 09:59 55.66679 0.20087 34237 ft 413 kts 262°
2026-04-25 09:59 55.65573 0.10080 34231 ft 415 kts 262°
2026-04-25 10:00 55.64454 0.00049 34236 ft 416 kts 262°
2026-04-25 10:00 55.63326 -0.10003 34230 ft 416 kts 261°
2026-04-25 10:01 55.62188 -0.20058 34240 ft 417 kts 261°
2026-04-25 10:01 55.61040 -0.30133 34238 ft 418 kts 261°
2026-04-25 10:02 55.59523 -0.40089 34241 ft 421 kts 252°
2026-04-25 10:02 55.57389 -0.49749 34236 ft 422 kts 251°
2026-04-25 10:03 55.55246 -0.59412 34240 ft 422 kts 251°
2026-04-25 10:03 55.53136 -0.69086 34239 ft 422 kts 251°
2026-04-25 10:04 55.51035 -0.78751 34232 ft 422 kts 251°
2026-04-25 10:04 55.48928 -0.88399 34240 ft 421 kts 251°
2026-04-25 10:05 55.46752 -0.97994 34237 ft 422 kts 245°
2026-04-25 10:05 55.43345 -1.06449 34242 ft 428 kts 227°
2026-04-25 10:06 55.38972 -1.13569 34247 ft 429 kts 224°
2026-04-25 10:06 55.34552 -1.20602 34253 ft 428 kts 224°
2026-04-25 10:07 55.30160 -1.27659 34257 ft 428 kts 225°
2026-04-25 10:07 55.25780 -1.34728 34253 ft 428 kts 225°
2026-04-25 10:08 55.21402 -1.41781 34256 ft 427 kts 225°
2026-04-25 10:08 55.17025 -1.48808 34259 ft 427 kts 225°
2026-04-25 10:09 55.12642 -1.55823 34264 ft 427 kts 225°
2026-04-25 10:09 55.08275 -1.62793 33860 ft 429 kts 224°
2026-04-25 10:10 55.06027 -1.66200 33467 ft 429 kts 218°
2026-04-25 10:10 55.03486 -1.68881 33126 ft 424 kts 207°
2026-04-25 10:10 55.00768 -1.70791 32762 ft 420 kts 199°
2026-04-25 10:10 54.97926 -1.71919 32378 ft 419 kts 192°
2026-04-25 10:11 54.95026 -1.72808 32007 ft 427 kts 192°
2026-04-25 10:11 54.92075 -1.73696 31599 ft 434 kts 192°
2026-04-25 10:11 54.89075 -1.74612 31188 ft 439 kts 192°
2026-04-25 10:11 54.86072 -1.75549 30767 ft 439 kts 192°
2026-04-25 10:12 54.83068 -1.76502 30334 ft 439 kts 192°
2026-04-25 10:12 54.80066 -1.77462 29858 ft 439 kts 192°
2026-04-25 10:12 54.74070 -1.79380 28983 ft 438 kts 192°
2026-04-25 10:13 54.71072 -1.80336 28569 ft 437 kts 192°
2026-04-25 10:13 54.68081 -1.81284 28125 ft 438 kts 192°
2026-04-25 10:13 54.65072 -1.82238 27699 ft 441 kts 192°
2026-04-25 10:13 54.62034 -1.83200 27260 ft 446 kts 192°
2026-04-25 10:14 54.58969 -1.84170 26812 ft 448 kts 192°
2026-04-25 10:14 54.55903 -1.85137 26371 ft 449 kts 192°
2026-04-25 10:14 54.52828 -1.86105 25802 ft 449 kts 192°
2026-04-25 10:14 54.49774 -1.87065 25175 ft 445 kts 192°
2026-04-25 10:15 54.46744 -1.88015 24549 ft 440 kts 192°
2026-04-25 10:15 54.43737 -1.88958 23949 ft 437 kts 191°
2026-04-25 10:15 54.40759 -1.89890 23249 ft 434 kts 192°
2026-04-25 10:15 54.37802 -1.90815 22603 ft 430 kts 191°
2026-04-25 10:16 54.34882 -1.91727 22005 ft 424 kts 191°
2026-04-25 10:16 54.31989 -1.92630 21388 ft 420 kts 191°
2026-04-25 10:16 54.29131 -1.93521 20800 ft 416 kts 191°
2026-04-25 10:16 54.26298 -1.94402 20234 ft 412 kts 191°
2026-04-25 10:17 54.23491 -1.95282 19673 ft 408 kts 193°
2026-04-25 10:17 54.20781 -1.96584 19113 ft 403 kts 202°
2026-04-25 10:17 54.18215 -1.98412 18574 ft 398 kts 204°
2026-04-25 10:17 54.15678 -2.00289 17966 ft 395 kts 204°
2026-04-25 10:18 54.13174 -2.02142 17381 ft 391 kts 204°
2026-04-25 10:18 54.10680 -2.03970 16824 ft 388 kts 204°
2026-04-25 10:18 54.08211 -2.05758 16275 ft 384 kts 204°
2026-04-25 10:18 54.05760 -2.07518 15748 ft 381 kts 204°
2026-04-25 10:19 54.03329 -2.09251 15224 ft 378 kts 204°
2026-04-25 10:19 54.00912 -2.10971 14708 ft 375 kts 204°
2026-04-25 10:19 53.98512 -2.12673 14196 ft 373 kts 204°
2026-04-25 10:19 53.96126 -2.14363 13637 ft 371 kts 204°
2026-04-25 10:20 53.93763 -2.16035 13088 ft 363 kts 204°
2026-04-25 10:20 53.91471 -2.17655 12556 ft 351 kts 204°
2026-04-25 10:20 53.89240 -2.19232 11930 ft 344 kts 204°
2026-04-25 10:20 53.87065 -2.20767 11432 ft 334 kts 204°
2026-04-25 10:21 53.84949 -2.22259 10961 ft 325 kts 204°
2026-04-25 10:21 53.82886 -2.23711 10514 ft 317 kts 204°
2026-04-25 10:21 53.80870 -2.25129 10066 ft 311 kts 204°
2026-04-25 10:21 53.78921 -2.26539 9894 ft 294 kts 204°
2026-04-25 10:22 53.77088 -2.27816 9771 ft 279 kts 204°
2026-04-25 10:22 53.75908 -2.28633 9514 ft 276 kts 204°
2026-04-25 10:22 53.73571 -2.30256 8923 ft 273 kts 204°
2026-04-25 10:22 53.71819 -2.31481 8509 ft 271 kts 204°
2026-04-25 10:23 53.70083 -2.32694 8112 ft 269 kts 203°
2026-04-25 10:23 53.68363 -2.33893 7730 ft 266 kts 203°
2026-04-25 10:23 53.66676 -2.35053 7443 ft 258 kts 201°
2026-04-25 10:23 53.64972 -2.35915 7146 ft 254 kts 195°
2026-04-25 10:24 53.63264 -2.36632 6767 ft 252 kts 194°
2026-04-25 10:24 53.61574 -2.37324 6535 ft 248 kts 194°
2026-04-25 10:24 53.59895 -2.38016 6375 ft 249 kts 194°
2026-04-25 10:24 53.58201 -2.38722 6211 ft 252 kts 194°
2026-04-25 10:25 53.56499 -2.39438 6041 ft 252 kts 195°
2026-04-25 10:25 53.54807 -2.40154 5880 ft 250 kts 194°
2026-04-25 10:25 53.53128 -2.40868 5730 ft 248 kts 195°
2026-04-25 10:25 53.51459 -2.41580 5583 ft 247 kts 194°
2026-04-25 10:26 53.49799 -2.42289 5426 ft 246 kts 194°
2026-04-25 10:26 53.48150 -2.42993 5282 ft 244 kts 194°
2026-04-25 10:26 53.46505 -2.43697 5117 ft 243 kts 194°
2026-04-25 10:26 53.44863 -2.44399 4977 ft 244 kts 194°
2026-04-25 10:27 53.43204 -2.45108 4831 ft 246 kts 194°
2026-04-25 10:27 53.41543 -2.45818 4675 ft 246 kts 194°
2026-04-25 10:27 53.39890 -2.46523 4525 ft 244 kts 194°
2026-04-25 10:27 53.38248 -2.47223 4377 ft 243 kts 194°
2026-04-25 10:28 53.36610 -2.47922 4226 ft 242 kts 194°
2026-04-25 10:28 53.34992 -2.48613 4070 ft 237 kts 194°
2026-04-25 10:28 53.33411 -2.49286 3918 ft 232 kts 194°
2026-04-25 10:28 53.31863 -2.49944 3781 ft 227 kts 194°
2026-04-25 10:29 53.30374 -2.50577 3642 ft 221 kts 194°
2026-04-25 10:29 53.28885 -2.51209 3519 ft 216 kts 194°
2026-04-25 10:29 53.27452 -2.51817 3393 ft 215 kts 194°
2026-04-25 10:29 53.26012 -2.51985 3244 ft 204 kts 161°
2026-04-25 10:30 53.24987 -2.50553 3085 ft 196 kts 115°
2026-04-25 10:30 53.24800 -2.49058 2852 ft 196 kts 82°
2026-04-25 10:30 53.25701 -2.46577 2579 ft 192 kts 46°
2026-04-25 10:30 53.26515 -2.44821 2310 ft 191 kts 56°
2026-04-25 10:31 53.27326 -2.43077 2049 ft 187 kts 49°
2026-04-25 10:31 53.28152 -2.41443 1803 ft 181 kts 51°
2026-04-25 10:31 53.28923 -2.39863 1551 ft 169 kts 51°
2026-04-25 10:31 53.29629 -2.38405 1370 ft 153 kts 51°
2026-04-25 10:32 53.30285 -2.37052 1124 ft 146 kts 51°
2026-04-25 10:32 53.30931 -2.35720 940 ft 149 kts 51°
2026-04-25 10:32 53.31591 -2.34360 739 ft 153 kts 51°
2026-04-25 10:32 53.32261 -2.32983 528 ft 153 kts 50°
2026-04-25 10:33 53.32937 -2.31603 312 ft 153 kts 50°
2026-04-25 10:33 53.33599 -2.30240 198 ft 144 kts 51°
2026-04-25 10:33 53.34151 -2.29093 213 ft 109 kts 51°
2026-04-25 10:33 53.34554 -2.28259 228 ft 75 kts 51°
2026-04-25 10:34 53.34814 -2.27723 235 ft 50 kts 51°
2026-04-25 10:34 53.34996 -2.27345 238 ft 27 kts 51°
2026-04-25 10:34 53.35072 -2.27277 240 ft 15 kts 12°
2026-04-25 10:34 53.35170 -2.27243 243 ft 14 kts 12°
2026-04-25 10:35 53.35266 -2.27211 249 ft 14 kts 11°
2026-04-25 10:35 53.35341 -2.27191 256 ft 0 kts
2026-04-25 10:37 53.35342 -2.27191 256 ft 1 kts
2026-04-25 10:38 53.35390 -2.27214 258 ft 14 kts 330°
2026-04-25 10:38 53.35477 -2.27328 261 ft 16 kts 321°
2026-04-25 10:38 53.35563 -2.27446 256 ft 17 kts 320°
2026-04-25 10:38 53.35655 -2.27570 246 ft 16 kts 320°
2026-04-25 10:39 53.35713 -2.27628 246 ft 9 kts 339°
2026-04-25 10:39 53.35774 -2.27668 246 ft 11 kts 332°
2026-04-25 10:39 53.35833 -2.27772 246 ft 11 kts 312°
2026-04-25 10:39 53.35893 -2.27846 246 ft 11 kts 356°
2026-04-25 10:40 53.35981 -2.27865 246 ft 15 kts 327°
2026-04-25 10:40 53.36057 -2.27986 246 ft 15 kts 315°
2026-04-25 10:40 53.36129 -2.28104 246 ft 14 kts 315°
2026-04-25 10:40 53.36214 -2.28137 246 ft 14 kts 16°
2026-04-25 10:41 53.36291 -2.28207 246 ft 13 kts 316°
2026-04-25 10:41 53.36354 -2.28312 246 ft 13 kts 315°
2026-04-25 10:41 53.36406 -2.28427 246 ft 12 kts 295°
2026-04-25 10:41 53.36457 -2.28549 246 ft 13 kts 315°
2026-04-25 10:42 53.36524 -2.28663 246 ft 14 kts 314°
2026-04-25 10:42 53.36591 -2.28773 246 ft 13 kts 322°
2026-04-25 10:42 53.36666 -2.28721 246 ft 13 kts 44°
2026-04-25 10:42 53.36728 -2.28620 246 ft 10 kts 44°
2026-04-25 10:43 53.36769 -2.28623 246 ft 7 kts 319°
2026-04-25 10:43 53.36801 -2.28676 246 ft 5 kts 315°
2026-04-25 10:43 53.36808 -2.28687 246 ft 0 kts 314°
2026-04-25 10:43 53.36808 -2.28688 246 ft 0 kts 315°